Wind_Speed
16 15 16 16 16 16 16 15 15 15 15 15 15 15 15 15 15 15 15 15 15 15 16 16 17 17 17 17 16 15 15 14 14 14 14 14 13 13 13 12 12 12 12 12 13 12 12 11 11
17 17 17 17 17 17 16 15 16 16 16 16 16 17 16 16 16 16 16 16 16 16 17 17 18 18 18 18 18 17 16 16 15 15 15 15 15 14 14 14 13 13 13 13 13 13 13 12 12
18 18 18 19 19 18 17 16 17 17 17 17 17 18 18 18 17 17 17 17 17 18 18 19 19 19 19 19 19 18 18 17 17 16 16 16 16 16 15 15 15 14 13 13 13 13 13 14 14
19 20 20 20 19 19 19 18 18 18 18 19 19 20 19 19 19 19 18 19 19 19 20 20 20 20 20 20 20 19 19 19 18 17 17 17 17 17 17 17 16 15 14 14 14 14 14 14 15
21 21 21 21 20 20 20 20 20 20 20 21 21 21 21 21 21 21 20 20 21 21 21 21 22 22 22 22 21 21 20 20 19 18 18 18 18 18 18 18 18 17 16 16 15 15 15 15 16
22 22 23 23 22 22 22 22 22 22 22 22 22 22 22 22 22 22 22 22 22 23 23 23 23 23 23 23 22 22 21 21 21 20 19 20 20 20 20 19 19 19 18 18 18 17 17 17 17
23 23 24 24 23 23 23 22 23 23 23 23 23 23 23 23 24 24 24 23 23 24 24 23 23 23 23 24 23 23 23 22 22 22 21 21 22 22 21 21 21 20 21 20 20 19 18 18 18
24 24 24 24 24 24 24 23 23 24 24 24 25 24 24 24 25 25 24 24 24 25 25 25 24 24 24 24 24 24 24 24 24 24 24 23 23 23 23 23 23 23 23 23 22 22 21 20 20
25 25 24 24 24 24 24 23 24 25 25 25 26 25 25 25 25 25 25 25 26 26 26 26 25 25 25 25 25 25 25 25 25 25 25 25 25 25 25 24 25 25 25 25 25 24 23 23 22
25 25 24 24 25 25 24 25 25 26 25 26 26 26 26 26 27 27 26 26 26 26 26 27 27 26 27 27 27 27 27 27 27 27 27 27 28 28 28 27 26 26 26 27 27 26 26 25 24
26 25 24 25 25 25 26 26 26 27 27 26 27 27 27 27 27 28 27 27 27 27 27 27 27 28 28 28 28 28 28 28 28 29 29 29 30 30 30 30 29 28 28 28 28 28 28 27 27
25 25 25 26 26 26 27 27 27 27 27 27 28 28 28 29 29 29 28 28 28 28 28 28 28 29 29 29 29 29 30 30 30 30 30 31 31 32 33 32 31 30 30 30 30 30 30 30 29
25 25 26 27 27 27 28 28 28 28 29 29 30 29 30 30 30 30 30 30 30 30 29 29 30 30 30 30 30 30 31 31 31 32 32 32 33 33 34 34 33 33 32 32 33 33 33 32 32
25 25 26 26 27 28 29 29 29 29 30 31 31 31 32 32 32 32 31 31 31 32 31 31 31 32 32 32 32 32 32 33 33 33 34 34 34 34 35 36 36 35 35 35 35 35 35 35 35
25 26 27 27 28 29 29 30 30 30 31 32 32 32 33 33 32 32 32 33 33 33 33 33 33 33 34 33 33 34 34 35 35 35 36 36 37 36 37 37 38 38 37 37 38 38 38 38 38
26 27 27 27 28 29 30 30 30 31 32 32 33 33 33 33 33 33 33 34 34 35 35 35 35 35 35 35 35 36 36 37 37 37 38 38 39 39 39 39 39 40 40 40 40 40 40 40 39
26 27 27 28 28 29 30 31 31 31 32 32 32 32 33 33 33 34 34 34 35 36 37 37 38 37 37 37 37 37 38 38 39 39 40 40 41 40 41 41 41 42 42 42 43 43 42 42 42
26 27 28 28 29 29 30 30 30 31 31 31 31 32 32 33 33 34 34 35 36 37 38 39 39 40 39 39 39 39 40 40 40 41 41 42 42 42 42 43 44 44 45 44 45 45 45 44 44
27 28 29 29 30 29 30 30 30 31 31 30 31 31 32 33 34 34 35 35 36 37 38 39 40 41 41 41 41 41 42 42 42 43 43 43 44 44 44 45 45 45 46 46 46 46 47 47 46
27 29 29 30 30 30 30 31 30 30 30 30 30 31 31 32 32 33 34 35 35 36 37 38 39 40 41 41 42 42 43 43 44 44 44 45 45 46 46 46 47 47 47 48 48 49 49 50 50
28 29 29 30 30 31 31 31 29 29 30 29 30 30 31 32 32 33 33 34 35 36 36 37 38 39 40 41 42 42 43 44 44 45 45 46 46 47 47 47 48 49 50 51 51 51 51 51 52
28 28 29 30 30 30 30 31 28 28 29 29 30 30 31 32 33 33 33 34 34 36 37 38 38 39 39 40 41 42 43 44 45 45 45 46 47 48 48 48 49 50 51 52 52 52 53 53 53
28 28 28 29 29 30 30 31 28 28 28 29 29 30 31 32 33 33 34 34 35 36 37 38 38 38 39 40 41 43 44 45 46 46 46 47 48 49 50 50 51 52 53 53 53 53 54 53 54
28 28 28 29 30 31 29 30 30 28 29 29 30 31 32 32 33 34 34 35 35 36 36 37 38 39 40 40 42 43 44 45 46 47 48 48 49 50 51 52 53 53 53 53 54 53 53 54 55
28 28 29 30 30 31 29 31 31 29 30 30 31 32 32 32 33 33 34 35 35 36 37 37 38 39 40 40 41 42 43 45 46 47 48 48 49 50 51 52 52 52 52 53 53 54 53 54 55
28 28 29 30 31 31 31 31 31 30 31 31 31 32 32 32 33 34 35 35 36 36 37 38 39 39 39 40 41 42 43 44 46 47 48 49 49 49 50 51 51 51 52 53 54 55 55 56 57
28 28 28 30 32 32 32 32 31 31 31 32 32 32 33 33 33 33 34 35 36 37 37 38 39 39 40 41 42 42 43 44 45 46 47 49 49 50 50 50 51 52 53 54 55 56 56 56 57
29 29 29 30 32 33 33 33 33 31 32 32 33 33 33 34 34 34 34 34 35 36 37 38 39 40 41 41 42 43 44 44 45 45 46 48 49 50 50 51 52 53 54 54 56 58 59 58 58
29 30 30 31 32 33 34 34 34 33 32 33 34 34 35 35 35 35 35 35 35 36 37 38 39 40 41 42 42 43 44 45 46 47 47 47 48 49 50 52 53 54 54 54 56 58 60 60 59
31 31 31 32 33 33 35 35 34 34 33 34 35 35 35 35 35 35 35 35 36 36 38 39 40 41 42 43 43 44 45 46 47 48 49 49 49 50 51 52 53 54 55 55 56 58 60 60 60
Wind_Direction
250 250 251 252 254 255 256 256 256 256 257 260 262 262 264 266 267 265 263 262 260 259 259 260 260 260 259 259 259 260 263 263 262 258 252 250 248 248 249 249 251 251 250 248 246 246 245 246 246
250 250 251 253 254 255 257 257 257 256 257 258 259 260 261 262 264 265 264 263 262 261 261 261 260 260 259 258 258 259 260 262 262 261 256 252 249 248 248 250 252 253 252 252 248 247 247 250 252
251 250 252 253 254 258 260 259 259 258 257 258 259 259 259 261 262 262 263 264 264 264 263 263 262 260 260 259 259 260 260 261 261 260 258 255 253 250 249 250 250 250 250 253 252 251 253 253 252
252 252 252 253 254 257 258 259 260 260 258 258 259 260 260 262 263 262 263 264 265 266 265 264 263 261 260 259 259 259 260 260 259 259 258 256 254 254 254 254 251 252 252 255 256 254 255 255 253
254 254 253 254 256 256 257 258 260 259 259 260 260 261 261 261 262 262 263 264 266 268 267 265 264 262 260 260 259 259 259 260 260 259 257 255 253 253 254 255 256 257 256 256 257 257 256 256 255
255 255 255 256 256 256 256 258 260 259 260 261 262 262 262 261 262 264 265 265 266 267 267 265 264 262 260 259 259 259 259 260 261 261 258 255 253 252 253 253 255 257 257 258 257 257 256 256 256
258 256 256 257 257 256 256 258 260 261 261 262 263 263 262 262 263 265 265 266 266 266 266 265 264 263 261 260 259 259 259 260 261 262 260 257 254 253 253 254 255 256 258 257 258 258 258 257 257
258 257 256 258 258 257 257 258 260 261 262 263 264 263 263 263 264 265 266 266 266 266 265 264 263 262 261 261 260 258 259 260 261 261 260 258 255 254 255 256 256 256 257 257 256 257 257 257 257
257 256 257 258 259 258 259 259 260 262 263 264 265 264 263 264 264 265 266 266 266 265 264 263 262 262 261 261 261 260 260 260 261 261 260 258 257 256 256 256 258 257 257 257 256 256 256 257 258
257 256 257 258 259 260 260 260 261 263 263 265 265 265 265 265 265 266 266 266 266 265 264 263 262 262 261 261 261 261 262 262 262 261 261 259 258 257 256 256 258 259 259 258 258 257 256 256 257
257 257 257 258 261 262 262 262 263 264 264 264 265 266 266 266 267 267 267 267 267 265 264 264 263 262 262 262 262 262 263 263 263 263 262 261 259 258 258 258 258 259 260 259 259 259 258 257 257
259 257 256 258 260 261 263 264 264 264 266 265 264 265 266 267 267 267 267 267 267 266 265 265 264 264 263 263 264 264 264 264 264 263 262 261 261 259 259 260 259 259 259 259 259 259 259 259 259
260 258 259 260 261 263 264 265 265 265 266 266 265 266 267 267 267 267 266 267 267 266 265 265 265 265 265 265 265 264 264 264 264 264 264 263 263 261 261 261 260 259 259 260 260 259 260 260 261
261 261 261 262 264 265 266 266 266 266 266 267 268 269 268 267 267 267 267 266 266 265 265 265 266 266 266 266 265 265 265 264 264 265 265 263 264 263 261 261 260 259 260 260 260 261 261 261 261
263 264 264 265 266 267 268 267 267 267 268 269 270 270 268 267 267 267 268 267 266 265 265 265 266 266 267 266 266 266 266 265 265 266 266 264 264 264 262 261 261 260 260 260 261 261 261 262 262
267 267 267 268 269 269 269 269 268 269 269 270 271 270 270 268 267 268 269 268 267 266 265 265 266 266 266 266 267 267 267 266 266 266 266 265 264 264 263 262 262 262 261 261 261 261 262 261 262
269 270 270 270 270 270 269 269 269 270 270 271 271 270 269 269 269 269 269 270 269 267 265 265 265 266 267 267 266 266 266 267 267 267 267 266 265 265 265 264 264 264 263 263 262 261 262 261 261
271 271 271 271 270 270 270 270 271 271 272 272 272 270 269 269 270 270 270 271 271 269 267 266 266 266 267 267 267 267 267 267 268 268 269 268 267 267 267 266 265 265 265 264 263 262 262 262 262
272 273 274 273 272 271 271 270 271 273 273 273 273 271 269 269 270 271 271 272 272 271 269 267 266 267 267 267 267 267 267 267 268 269 269 269 268 267 268 268 267 265 265 265 264 263 263 262 262
274 275 276 275 274 273 272 272 271 273 274 274 274 274 272 271 272 272 272 273 274 273 271 269 268 267 267 267 267 268 268 267 268 268 269 270 270 269 269 268 268 267 266 266 266 264 264 263 263
275 276 276 276 275 275 275 273 273 274 275 276 276 275 275 274 274 274 274 275 275 274 273 271 270 269 269 268 268 269 268 268 269 269 270 271 271 270 269 268 269 269 268 267 267 266 265 265 264
276 277 277 277 277 277 276 276 274 276 277 279 279 278 279 278 276 276 276 277 276 276 275 273 273 272 271 270 270 269 269 269 268 269 270 271 272 270 269 268 269 270 269 268 268 267 266 266 266
278 279 279 278 278 277 277 278 277 278 278 279 280 281 281 281 278 278 278 278 278 278 277 276 275 275 274 272 271 271 270 269 269 270 270 272 272 271 270 270 270 271 270 270 269 268 267 267 267
279 279 279 279 278 277 278 279 280 282 283 281 281 282 283 282 281 279 279 279 279 279 279 277 277 276 276 274 273 273 272 271 270 270 271 272 272 273 272 272 272 272 271 270 269 267 267 267 267
278 279 279 279 278 278 280 280 282 284 284 284 284 284 285 284 283 280 280 281 280 280 280 279 278 277 276 275 275 275 275 273 271 271 272 273 273 274 273 272 272 271 271 270 268 267 267 267 268
277 278 279 280 281 281 281 281 283 285 285 285 285 285 285 285 284 282 280 281 281 282 282 280 279 278 277 277 276 277 277 276 273 272 273 274 274 274 274 273 272 271 271 270 269 268 268 268 269
276 276 278 280 282 283 283 283 284 286 286 287 287 287 286 286 285 284 283 283 283 282 281 281 280 279 279 278 278 279 279 278 277 275 274 275 275 275 275 274 272 272 272 272 270 269 269 269 270
275 277 278 279 281 283 284 285 287 288 288 288 289 289 288 287 287 287 286 286 285 284 282 281 281 281 280 280 280 279 279 280 279 278 277 276 276 276 276 276 274 273 273 273 272 270 269 270 271
275 275 276 277 278 282 285 286 288 289 290 290 289 288 288 287 288 288 287 286 286 284 283 282 283 283 282 281 281 281 281 280 280 279 278 279 278 278 278 278 276 274 275 275 273 271 271 271 271
276 275 275 276 277 279 282 285 288 289 289 288 288 287 287 287 288 288 286 286 286 285 285 284 284 284 284 283 283 282 282 282 282 281 280 280 280 279 279 279 278 276 276 275 275 273 271 271 270
Height
5813 5814 5815 5815 5816 5817 5817 5818 5819 5819 5820 5820 5821 5821 5821 5822 5823 5825 5824 5823 5823 5824 5824 5825 5825 5825 5826 5827 5827 5828 5828 5829 5830 5830 5831 5832 5832 5833 5833 5834 5834 5835 5835 5836 5837 5837 5838 5839 5839
5810 5811 5812 5813 5813 5813 5815 5815 5815 5816 5817 5818 5818 5818 5819 5819 5819 5820 5820 5820 5820 5821 5821 5822 5822 5822 5823 5824 5825 5825 5826 5826 5827 5827 5828 5829 5830 5830 5831 5831 5832 5833 5833 5834 5835 5835 5836 5837 5838
5807 5807 5809 5809 5810 5811 5812 5812 5812 5813 5814 5815 5815 5815 5816 5816 5816 5816 5816 5817 5817 5818 5818 5818 5819 5819 5820 5820 5821 5822 5823 5823 5824 5824 5825 5826 5827 5827 5828 5829 5830 5830 5831 5831 5832 5833 5834 5835 5835
5803 5804 5805 5806 5806 5808 5808 5808 5809 5810 5810 5811 5811 5812 5812 5813 5813 5813 5813 5813 5814 5814 5814 5814 5815 5815 5816 5816 5817 5818 5819 5820 5820 5821 5822 5822 5823 5824 5825 5826 5827 5827 5828 5829 5830 5831 5831 5832 5833
5799 5800 5801 5802 5803 5804 5804 5804 5805 5806 5806 5807 5807 5808 5808 5809 5809 5809 5809 5810 5810 5810 5810 5810 5810 5811 5811 5812 5813 5814 5815 5816 5816 5817 5818 5819 5819 5820 5822 5823 5824 5824 5825 5826 5827 5827 5828 5829 5830
5796 5796 5797 5797 5798 5800 5800 5801 5801 5802 5802 5802 5803 5804 5804 5804 5804 5805 5805 5805 5805 5805 5806 5806 5806 5806 5807 5808 5809 5810 5811 5811 5812 5813 5814 5814 5816 5816 5818 5819 5820 5821 5821 5822 5823 5824 5825 5826 5826
5792 5792 5792 5793 5794 5795 5796 5796 5796 5797 5798 5798 5799 5799 5799 5800 5800 5800 5800 5800 5801 5801 5801 5801 5801 5801 5802 5803 5804 5805 5806 5806 5807 5808 5809 5810 5811 5812 5813 5814 5816 5817 5817 5818 5819 5820 5821 5822 5822
5786 5787 5787 5788 5789 5790 5791 5791 5791 5792 5793 5793 5794 5794 5795 5795 5795 5795 5795 5795 5796 5795 5795 5796 5796 5797 5797 5798 5799 5800 5801 5801 5802 5803 5804 5805 5806 5807 5808 5810 5811 5812 5813 5814 5815 5816 5817 5817 5818
5780 5783 5783 5784 5784 5785 5786 5786 5787 5787 5788 5788 5788 5789 5790 5789 5789 5790 5790 5790 5790 5790 5790 5790 5791 5791 5792 5793 5793 5794 5795 5796 5797 5797 5798 5799 5800 5802 5803 5804 5806 5807 5808 5809 5809 5811 5812 5813 5814
5775 5777 5779 5779 5779 5780 5780 5781 5781 5782 5782 5782 5783 5783 5784 5784 5784 5784 5784 5784 5784 5784 5784 5784 5785 5785 5786 5787 5788 5788 5789 5790 5790 5791 5792 5793 5794 5795 5797 5798 5800 5801 5802 5803 5804 5805 5807 5808 5809
5770 5772 5773 5773 5773 5774 5775 5775 5776 5776 5777 5777 5777 5777 5777 5778 5778 5778 5778 5778 5778 5778 5778 5778 5779 5779 5780 5781 5781 5782 5783 5784 5784 5785 5786 5787 5788 5789 5790 5791 5793 5795 5796 5797 5798 5799 5801 5802 5803
5765 5766 5767 5767 5768 5768 5769 5769 5770 5770 5771 5771 5771 5771 5771 5771 5771 5771 5771 5772 5772 5771 5772 5772 5772 5772 5773 5774 5775 5775 5776 5777 5777 5778 5779 5780 5781 5782 5783 5784 5786 5788 5789 5791 5792 5793 5794 5795 5797
5759 5760 5761 5761 5762 5762 5763 5763 5763 5764 5764 5764 5763 5764 5764 5764 5764 5764 5764 5764 5765 5765 5765 5765 5765 5766 5766 5767 5768 5768 5769 5770 5770 5771 5772 5773 5773 5775 5776 5777 5778 5780 5781 5783 5784 5786 5787 5788 5789
5754 5754 5754 5755 5755 5756 5756 5756 5757 5757 5757 5756 5756 5756 5756 5756 5756 5756 5757 5757 5757 5757 5758 5758 5758 5759 5759 5760 5760 5761 5761 5762 5763 5764 5764 5765 5766 5766 5768 5769 5770 5771 5773 5775 5776 5778 5779 5780 5782
5747 5748 5748 5748 5749 5749 5749 5749 5750 5750 5749 5748 5748 5748 5748 5748 5748 5748 5749 5749 5749 5749 5750 5750 5751 5751 5751 5752 5752 5753 5753 5754 5755 5755 5756 5756 5757 5758 5759 5760 5761 5763 5764 5766 5767 5769 5770 5772 5773
5741 5741 5742 5742 5742 5742 5743 5743 5742 5741 5741 5740 5740 5740 5740 5739 5740 5740 5740 5740 5740 5741 5741 5742 5742 5743 5743 5744 5744 5744 5745 5745 5746 5747 5747 5747 5748 5749 5750 5751 5752 5753 5755 5756 5758 5759 5761 5762 5763
5734 5735 5735 5735 5735 5734 5734 5734 5734 5733 5733 5732 5732 5731 5731 5731 5731 5732 5732 5732 5732 5732 5732 5733 5734 5734 5734 5735 5735 5736 5736 5736 5737 5737 5737 5738 5738 5739 5740 5741 5742 5743 5744 5745 5747 5748 5750 5751 5753
5728 5728 5728 5727 5727 5727 5726 5726 5726 5725 5725 5724 5724 5723 5723 5723 5723 5723 5723 5723 5723 5723 5723 5723 5724 5724 5725 5725 5726 5726 5726 5727 5727 5727 5728 5728 5728 5729 5729 5730 5731 5732 5733 5734 5735 5737 5738 5739 5741
5722 5721 5721 5720 5719 5719 5719 5719 5718 5717 5717 5716 5716 5715 5715 5715 5715 5714 5714 5714 5714 5713 5713 5713 5714 5714 5715 5715 5716 5716 5716 5717 5717 5717 5717 5717 5717 5718 5718 5718 5719 5720 5721 5722 5723 5724 5725 5727 5728
5715 5714 5714 5713 5712 5712 5711 5711 5711 5710 5710 5709 5708 5707 5707 5706 5706 5706 5706 5705 5705 5704 5704 5703 5704 5704 5704 5704 5705 5705 5706 5706 5706 5706 5706 5706 5706 5706 5706 5706 5707 5707 5708 5709 5710 5711 5712 5713 5714
5708 5708 5707 5706 5705 5704 5704 5704 5704 5703 5702 5701 5701 5700 5699 5698 5698 5698 5697 5697 5696 5695 5695 5694 5693 5693 5693 5694 5694 5694 5694 5694 5695 5695 5695 5694 5694 5694 5694 5694 5694 5694 5695 5695 5696 5697 5698 5699 5700
5701 5701 5699 5698 5697 5697 5696 5695 5697 5696 5695 5694 5693 5692 5691 5690 5690 5689 5689 5688 5687 5686 5685 5684 5684 5683 5683 5683 5683 5683 5683 5683 5683 5683 5683 5682 5682 5681 5681 5681 5681 5681 5681 5681 5681 5682 5683 5684 5685
5694 5693 5692 5691 5690 5689 5688 5687 5690 5689 5688 5687 5686 5685 5683 5682 5681 5681 5680 5679 5678 5677 5675 5675 5674 5673 5672 5672 5671 5671 5671 5671 5671 5671 5670 5670 5669 5668 5668 5667 5667 5667 5667 5667 5667 5667 5668 5668 5670
5687 5686 5685 5683 5682 5682 5683 5681 5681 5681 5680 5680 5678 5677 5676 5675 5673 5672 5671 5670 5669 5668 5666 5665 5664 5663 5662 5661 5660 5660 5659 5659 5659 5659 5658 5657 5656 5655 5654 5653 5653 5652 5652 5652 5652 5652 5653 5653 5654
5680 5679 5678 5676 5674 5675 5675 5673 5674 5673 5672 5671 5670 5669 5667 5666 5665 5663 5662 5661 5660 5659 5657 5656 5654 5653 5652 5650 5649 5648 5647 5647 5646 5646 5645 5644 5643 5641 5640 5639 5638 5637 5637 5637 5637 5637 5638 5638 5639
5672 5672 5671 5669 5668 5667 5667 5666 5668 5666 5664 5663 5662 5660 5659 5658 5656 5655 5653 5652 5651 5649 5648 5646 5644 5643 5641 5640 5639 5637 5636 5634 5633 5633 5632 5630 5629 5627 5625 5624 5623 5622 5622 5622 5622 5622 5622 5622 5623
5665 5664 5664 5662 5660 5660 5659 5659 5660 5658 5656 5655 5654 5652 5651 5649 5648 5646 5644 5643 5641 5640 5638 5636 5635 5633 5631 5629 5628 5626 5624 5622 5621 5619 5618 5616 5615 5613 5611 5610 5608 5607 5607 5606 5606 5606 5606 5606 5606
5657 5657 5656 5654 5652 5651 5651 5651 5651 5650 5648 5647 5645 5643 5642 5640 5639 5637 5635 5633 5631 5630 5628 5626 5624 5622 5621 5619 5617 5615 5613 5610 5608 5606 5604 5603 5601 5599 5597 5595 5594 5593 5592 5591 5590 5590 5590 5590 5590
5650 5649 5648 5646 5645 5644 5643 5645 5642 5641 5640 5638 5636 5634 5633 5631 5629 5627 5626 5624 5622 5620 5618 5616 5614 5612 5610 5608 5605 5603 5601 5598 5596 5593 5591 5589 5587 5585 5583 5581 5579 5577 5576 5575 5574 5574 5573 5573 5573
5641 5641 5640 5639 5638 5636 5635 5638 5634 5633 5631 5629 5628 5625 5623 5622 5620 5618 5616 5614 5612 5610 5608 5606 5604 5601 5599 5596 5594 5591 5588 5586 5583 5581 5578 5576 5573 5571 5569 5566 5564 5562 5560 5559 5558 5557 5557 5556 5556